UFO 2 (USA 95)

Last updated on Jan. 21, 2021, 6:16 a.m. UTC

1 22787U 93056A   21020.14332001  .00000129  00000-0  00000-0 0  9990
2 22787  11.3405  14.0446 0007272 269.1084 276.9294  1.00270954 98744
UTC
Height (km)
Latitude
Longitude
Inclination
Orbital Period
UTC large
Height (km)
Speed (km/s)
/
Latitude / Longitude
Inclination (degrees)
Orbital Period (minutes)
Azimuth
Elevation
Range (km)
Doppler Factor
iOS Compass Heading
iOS Angle

Next 30 passes for location: Hong Kong

Rise time Rise Azimuth (degrees) Set time Set Azimuth (degrees) Duration Max altitude (degrees)

No matching passes for this satellites